TimeMDT,TemperatureF,Dew PointF,Humidity,Sea Level PressureIn,VisibilityMPH,Wind Direction,Wind SpeedMPH,Gust SpeedMPH,PrecipitationIn,Events,Conditions,WindDirDegrees,DateUTC
12:16 AM,-9999,-9999,N/A,30.04,10.0,NNW,17.3,-,0.01,,Light Drizzle,330,2013-04-06 06:16:00
12:36 AM,-9999,-9999,N/A,30.03,10.0,NNW,17.3,-,0.01,,Clear,330,2013-04-06 06:36:00
12:56 AM,-9999,-9999,N/A,30.04,10.0,NNW,15.0,-,N/A,,Clear,330,2013-04-06 06:56:00
1:16 AM,-9999,-9999,N/A,30.04,10.0,NNW,12.7,18.4,N/A,,Clear,330,2013-04-06 07:16:00
1:36 AM,-9999,-9999,N/A,30.04,10.0,West,4.6,-,N/A,,Clear,270,2013-04-06 07:36:00
1:56 AM,-9999,-9999,N/A,30.04,10.0,Calm,Calm,-,N/A,,Scattered Clouds,0,2013-04-06 07:56:00
2:16 AM,-9999,-9999,N/A,30.04,10.0,ESE,3.5,-,N/A,,Scattered Clouds,110,2013-04-06 08:16:00
2:35 AM,-9999,-9999,N/A,30.04,10.0,NE,4.6,-,N/A,,Scattered Clouds,40,2013-04-06 08:35:00
2:55 AM,-9999,-9999,N/A,30.03,10.0,North,3.5,-,N/A,,Clear,350,2013-04-06 08:55:00
3:16 AM,-9999,-9999,N/A,30.03,10.0,SSE,4.6,-,N/A,,Clear,160,2013-04-06 09:16:00
3:36 AM,-9999,-9999,N/A,30.03,10.0,Calm,Calm,-,N/A,,Clear,0,2013-04-06 09:36:00
3:56 AM,-9999,-9999,N/A,30.04,10.0,East,4.6,-,N/A,,Clear,90,2013-04-06 09:56:00
4:16 AM,-9999,-9999,N/A,30.04,10.0,ENE,5.8,-,N/A,,Clear,60,2013-04-06 10:16:00
4:36 AM,-9999,-9999,N/A,30.04,10.0,Calm,Calm,-,N/A,,Clear,0,2013-04-06 10:36:00
4:56 AM,-9999,-9999,N/A,30.03,10.0,NE,3.5,-,N/A,,Clear,40,2013-04-06 10:56:00
5:16 AM,-9999,-9999,N/A,30.03,10.0,Calm,Calm,-,N/A,,Clear,0,2013-04-06 11:16:00
5:36 AM,-9999,-9999,N/A,30.04,10.0,North,4.6,-,N/A,,Clear,360,2013-04-06 11:36:00
5:56 AM,-9999,-9999,N/A,30.04,10.0,NW,5.8,-,N/A,,Clear,320,2013-04-06 11:56:00
6:16 AM,-9999,-9999,N/A,30.05,10.0,North,5.8,-,N/A,,Clear,360,2013-04-06 12:16:00
6:36 AM,-9999,-9999,N/A,30.05,10.0,NNE,6.9,-,N/A,,Clear,20,2013-04-06 12:36:00
6:55 AM,-9999,-9999,N/A,30.06,10.0,NNE,6.9,-,N/A,,Clear,30,2013-04-06 12:55:00
7:16 AM,-9999,-9999,N/A,30.07,10.0,NNE,6.9,-,N/A,,Clear,30,2013-04-06 13:16:00
7:36 AM,-9999,-9999,N/A,30.07,10.0,NNE,6.9,-,N/A,,Clear,30,2013-04-06 13:36:00
7:55 AM,-9999,-9999,N/A,30.08,10.0,Calm,Calm,-,N/A,,Clear,0,2013-04-06 13:55:00
8:16 AM,-9999,-9999,N/A,30.08,10.0,Calm,Calm,-,N/A,,Clear,0,2013-04-06 14:16:00
8:36 AM,-9999,-9999,N/A,30.08,10.0,Calm,Calm,-,N/A,,Clear,0,2013-04-06 14:36:00
8:56 AM,-9999,-9999,N/A,30.08,10.0,NW,5.8,-,N/A,,Clear,310,2013-04-06 14:56:00
9:16 AM,-9999,-9999,N/A,30.07,10.0,NNW,6.9,-,N/A,,Clear,340,2013-04-06 15:16:00
9:36 AM,-9999,-9999,N/A,30.07,10.0,NNW,9.2,-,N/A,,Clear,340,2013-04-06 15:36:00
9:56 AM,-9999,-9999,N/A,30.07,10.0,NW,10.4,-,N/A,,Clear,320,2013-04-06 15:56:00
10:16 AM,-9999,-9999,N/A,30.06,10.0,NNW,6.9,-,N/A,,Clear,340,2013-04-06 16:16:00
10:36 AM,-9999,-9999,N/A,30.05,10.0,NW,11.5,-,N/A,,Clear,320,2013-04-06 16:36:00
10:56 AM,-9999,-9999,N/A,30.05,10.0,NNW,8.1,-,N/A,,Clear,340,2013-04-06 16:56:00
11:16 AM,-9999,-9999,N/A,30.05,10.0,North,9.2,-,N/A,,Clear,350,2013-04-06 17:16:00
11:36 AM,-9999,-9999,N/A,30.04,10.0,East,4.6,-,N/A,,Clear,80,2013-04-06 17:36:00
11:56 AM,-9999,-9999,N/A,30.04,10.0,South,4.6,-,N/A,,Clear,170,2013-04-06 17:56:00
12:16 PM,-9999,-9999,N/A,30.03,10.0,SSE,6.9,-,N/A,,Clear,160,2013-04-06 18:16:00
12:36 PM,-9999,-9999,N/A,30.02,10.0,SW,9.2,19.6,N/A,,Clear,220,2013-04-06 18:36:00
12:55 PM,-9999,-9999,N/A,30.02,10.0,SSW,9.2,19.6,N/A,,Scattered Clouds,210,2013-04-06 18:55:00
1:16 PM,-9999,-9999,N/A,30.01,10.0,SW,3.5,-,N/A,,Mostly Cloudy,230,2013-04-06 19:16:00
1:36 PM,-9999,-9999,N/A,30.01,10.0,Calm,Calm,-,N/A,,Overcast,0,2013-04-06 19:36:00
1:55 PM,-9999,-9999,N/A,30.00,10.0,Calm,Calm,-,N/A,,Mostly Cloudy,0,2013-04-06 19:55:00
2:16 PM,-9999,-9999,N/A,29.99,10.0,North,9.2,-,N/A,,Mostly Cloudy,350,2013-04-06 20:16:00
2:36 PM,-9999,-9999,N/A,29.98,10.0,NNW,10.4,24.2,N/A,,Overcast,340,2013-04-06 20:36:00
2:56 PM,-9999,-9999,N/A,29.98,10.0,NW,16.1,21.9,N/A,,Mostly Cloudy,320,2013-04-06 20:56:00
3:16 PM,-9999,-9999,N/A,29.97,10.0,North,15.0,23.0,N/A,,Overcast,350,2013-04-06 21:16:00
3:36 PM,-9999,-9999,N/A,29.96,10.0,NW,17.3,23.0,N/A,,Scattered Clouds,320,2013-04-06 21:36:00
3:56 PM,-9999,-9999,N/A,29.95,10.0,NNW,15.0,20.7,N/A,,Scattered Clouds,340,2013-04-06 21:56:00
4:16 PM,-9999,-9999,N/A,29.94,10.0,NNW,12.7,23.0,N/A,,Scattered Clouds,340,2013-04-06 22:16:00
4:36 PM,-9999,-9999,N/A,29.94,10.0,NNW,16.1,21.9,N/A,,Clear,340,2013-04-06 22:36:00
4:56 PM,-9999,-9999,N/A,29.94,10.0,NNW,9.2,29.9,N/A,,Clear,340,2013-04-06 22:56:00
5:16 PM,-9999,-9999,N/A,29.94,10.0,NW,20.7,26.5,N/A,,Scattered Clouds,320,2013-04-06 23:16:00
5:36 PM,-9999,-9999,N/A,29.94,10.0,NNW,13.8,-,N/A,,Scattered Clouds,340,2013-04-06 23:36:00
5:56 PM,-9999,-9999,N/A,29.95,10.0,NNW,11.5,26.5,N/A,,Clear,330,2013-04-06 23:56:00
6:16 PM,-9999,-9999,N/A,29.95,10.0,NNW,11.5,19.6,N/A,,Clear,330,2013-04-07 00:16:00
6:36 PM,-9999,-9999,N/A,29.95,10.0,NW,13.8,19.6,N/A,,Scattered Clouds,320,2013-04-07 00:36:00
6:56 PM,-9999,-9999,N/A,29.95,10.0,NW,12.7,-,N/A,,Scattered Clouds,310,2013-04-07 00:56:00
7:16 PM,-9999,-9999,N/A,29.96,10.0,North,8.1,-,N/A,,Mostly Cloudy,350,2013-04-07 01:16:00
7:36 PM,-9999,-9999,N/A,29.96,10.0,NW,5.8,-,N/A,,Mostly Cloudy,310,2013-04-07 01:36:00
7:56 PM,-9999,-9999,N/A,29.96,10.0,NW,5.8,-,N/A,,Mostly Cloudy,310,2013-04-07 01:56:00
8:16 PM,-9999,-9999,N/A,29.97,10.0,NNW,10.4,-,N/A,,Mostly Cloudy,340,2013-04-07 02:16:00
8:36 PM,-9999,-9999,N/A,29.97,10.0,WNW,8.1,-,N/A,,Overcast,290,2013-04-07 02:36:00
8:55 PM,-9999,-9999,N/A,29.98,10.0,NW,6.9,-,N/A,,Mostly Cloudy,320,2013-04-07 02:55:00
9:16 PM,-9999,-9999,N/A,29.98,10.0,NW,5.8,-,N/A,,Scattered Clouds,310,2013-04-07 03:16:00
9:36 PM,-9999,-9999,N/A,30.00,10.0,NW,11.5,-,N/A,,Mostly Cloudy,320,2013-04-07 03:36:00
9:56 PM,-9999,-9999,N/A,30.00,10.0,NW,11.5,-,N/A,,Mostly Cloudy,320,2013-04-07 03:56:00
10:16 PM,-9999,-9999,N/A,30.00,10.0,NNW,11.5,-,N/A,,Mostly Cloudy,330,2013-04-07 04:16:00
10:36 PM,-9999,-9999,N/A,30.00,10.0,NW,9.2,-,N/A,,Scattered Clouds,320,2013-04-07 04:36:00
10:55 PM,-9999,-9999,N/A,30.00,10.0,NW,10.4,17.3,N/A,,Scattered Clouds,320,2013-04-07 04:55:00
11:16 PM,-9999,-9999,N/A,30.00,10.0,NW,18.4,-,N/A,,Scattered Clouds,320,2013-04-07 05:16:00
11:36 PM,-9999,-9999,N/A,30.00,10.0,NNW,19.6,-,N/A,,Clear,330,2013-04-07 05:36:00
11:56 PM,-9999,-9999,N/A,30.00,10.0,NW,21.9,26.5,N/A,,Clear,320,2013-04-07 05:56:00